TimeEET,TemperatureF,Dew PointF,Humidity,Sea Level PressureIn,VisibilityMPH,Wind Direction,Wind SpeedMPH,Gust SpeedMPH,PrecipitationIn,Events,Conditions,WindDirDegrees,DateUTC
12:20 AM,28.4,28.4,100,30.15,0.5,NW,16.1,-,N/A,Snow,Heavy Snow Showers,320,2013-01-08 22:20:00
12:50 AM,28.4,28.4,100,30.15,1.2,NW,15.0,-,N/A,Snow,Snow Showers,310,2013-01-08 22:50:00
1:20 AM,28.4,28.4,100,30.15,1.2,NW,12.7,-,N/A,Snow,Snow Showers,320,2013-01-08 23:20:00
1:50 AM,28.4,26.6,93,30.15,3.7,WNW,13.8,-,N/A,Snow,Light Snow Showers,300,2013-01-08 23:50:00
2:00 AM,28,28,97,30.19,4,WNW,13.8,,,Snow,Light Snow Showers,300,2013-01-09 00:00:00
2:20 AM,26.6,26.6,100,30.15,3.7,NW,18.4,-,N/A,Snow,Light Snow Showers,310,2013-01-09 00:20:00
2:50 AM,26.6,24.8,93,30.15,3.7,NW,16.1,-,N/A,Snow,Light Snow Showers,310,2013-01-09 00:50:00
3:20 AM,26.6,24.8,93,30.15,3.7,WNW,13.8,-,N/A,Snow,Light Snow Showers,300,2013-01-09 01:20:00
3:50 AM,26.6,23.0,86,30.15,6.2,NW,16.1,-,N/A,Snow,Light Snow Showers,310,2013-01-09 01:50:00
4:20 AM,28.4,23.0,80,30.15,3.7,WNW,13.8,-,N/A,Snow,Light Snow Showers,300,2013-01-09 02:20:00
4:50 AM,28.4,23.0,80,30.15,3.7,NW,20.7,-,N/A,Snow,Light Snow Showers,310,2013-01-09 02:50:00
5:20 AM,28.4,23.0,80,30.18,3.7,NW,13.8,-,N/A,Snow,Light Snow Showers,310,2013-01-09 03:20:00
5:50 AM,28.4,23.0,80,30.18,3.7,WNW,9.2,-,N/A,Snow,Light Snow Showers,300,2013-01-09 03:50:00
6:20 AM,28.4,23.0,80,30.18,3.7,NW,13.8,-,N/A,Snow,Light Snow Showers,310,2013-01-09 04:20:00
6:50 AM,28.4,23.0,80,30.18,3.7,WNW,13.8,-,N/A,Snow,Light Snow Showers,300,2013-01-09 04:50:00
7:20 AM,28.4,21.2,74,30.21,3.7,WNW,12.7,-,N/A,Snow,Light Snow Showers,290,2013-01-09 05:20:00
7:50 AM,30.2,21.2,69,30.21,3.7,WNW,13.8,-,N/A,Snow,Light Snow Showers,290,2013-01-09 05:50:00
8:00 AM,29,20,60,30.25,4,WNW,13.8,,,Snow,Light Snow Showers,290,2013-01-09 06:00:00
8:20 AM,28.4,21.2,74,30.24,6.2,WNW,11.5,-,N/A,,Mostly Cloudy,290,2013-01-09 06:20:00
8:50 AM,30.2,21.2,69,30.24,6.2,WNW,11.5,-,N/A,,Mostly Cloudy,290,2013-01-09 06:50:00
9:20 AM,28.4,21.2,74,30.24,4.3,WNW,9.2,-,N/A,,Mostly Cloudy,290,2013-01-09 07:20:00
9:50 AM,30.2,21.2,69,30.24,4.3,WNW,9.2,-,N/A,,Mostly Cloudy,300,2013-01-09 07:50:00
10:20 AM,30.2,19.4,64,30.24,5.0,WNW,11.5,-,N/A,,Mostly Cloudy,300,2013-01-09 08:20:00
10:50 AM,30.2,19.4,64,30.24,4.3,WNW,10.4,-,N/A,,Mostly Cloudy,300,2013-01-09 08:50:00
11:20 AM,30.2,19.4,64,30.24,4.3,NW,8.1,-,N/A,,Mostly Cloudy,320,2013-01-09 09:20:00
11:50 AM,30.2,19.4,64,30.24,4.3,NW,9.2,-,N/A,,Mostly Cloudy,310,2013-01-09 09:50:00
12:20 PM,32.0,19.4,60,30.21,6.2,WNW,10.4,-,N/A,,Mostly Cloudy,300,2013-01-09 10:20:00
12:50 PM,32.0,19.4,60,30.21,6.2,NW,8.1,-,N/A,,Scattered Clouds,310,2013-01-09 10:50:00
1:20 PM,32.0,17.6,55,30.21,6.2,NW,10.4,-,N/A,,Scattered Clouds,320,2013-01-09 11:20:00
1:50 PM,33.8,19.4,56,30.21,6.2,NW,6.9,-,N/A,,Scattered Clouds,310,2013-01-09 11:50:00
2:00 PM,33,19,42,30.23,6,NW,6.9,,,,Partly Cloudy,310,2013-01-09 12:00:00
2:20 PM,33.8,19.4,56,30.21,6.2,NW,6.9,-,N/A,,Scattered Clouds,320,2013-01-09 12:20:00
2:50 PM,33.8,19.4,56,30.21,-9999.0,NW,4.6,-,N/A,,Clear,310,2013-01-09 12:50:00
3:20 PM,33.8,19.4,56,30.21,-9999.0,WNW,3.5,-,N/A,,Clear,300,2013-01-09 13:20:00
3:50 PM,32.0,19.4,60,30.21,-9999.0,NNW,3.5,-,N/A,,Clear,330,2013-01-09 13:50:00
4:20 PM,32.0,17.6,55,30.21,-9999.0,NNW,3.5,-,N/A,,Clear,330,2013-01-09 14:20:00
4:50 PM,32.0,19.4,60,30.21,-9999.0,NNW,2.3,-,N/A,,Clear,340,2013-01-09 14:50:00
5:20 PM,32.0,17.6,55,30.21,-9999.0,Calm,Calm,-,N/A,,Clear,0,2013-01-09 15:20:00
5:50 PM,28.4,17.6,64,30.21,-9999.0,Calm,Calm,-,N/A,,Clear,0,2013-01-09 15:50:00
6:20 PM,30.2,17.6,60,30.24,-9999.0,Calm,Calm,-,N/A,,Clear,0,2013-01-09 16:20:00
6:50 PM,28.4,17.6,64,30.24,-9999.0,Calm,Calm,-,N/A,,Clear,0,2013-01-09 16:50:00
7:20 PM,30.2,17.6,60,30.24,-9999.0,Calm,Calm,-,N/A,,Clear,0,2013-01-09 17:20:00
7:50 PM,26.6,17.6,69,30.24,-9999.0,NW,3.5,-,N/A,,Clear,320,2013-01-09 17:50:00
8:00 PM,27,18,57,30.26,6,NW,3.5,,,,,320,2013-01-09 18:00:00
8:20 PM,28.4,19.4,69,30.24,-9999.0,NW,1.2,-,N/A,,Clear,320,2013-01-09 18:20:00
8:50 PM,28.4,19.4,69,30.24,-9999.0,Variable,1.2,-,N/A,,Clear,0,2013-01-09 18:50:00
9:20 PM,30.2,21.2,69,30.24,-9999.0,Variable,1.2,-,N/A,,Clear,0,2013-01-09 19:20:00
9:50 PM,32.0,21.2,64,30.24,-9999.0,Variable,2.3,-,N/A,,Clear,0,2013-01-09 19:50:00
10:20 PM,28.4,19.4,69,30.24,-9999.0,West,2.3,-,N/A,,Clear,280,2013-01-09 20:20:00
10:50 PM,24.8,19.4,80,30.24,-9999.0,Variable,2.3,-,N/A,,Clear,0,2013-01-09 20:50:00
11:20 PM,26.6,21.2,80,30.24,-9999.0,NNW,2.3,-,N/A,,Clear,330,2013-01-09 21:20:00
11:50 PM,24.8,19.4,80,30.24,3.7,NNW,3.5,-,N/A,,Unknown,340,2013-01-09 21:50:00